Hourly Data Report for August 16, 2022

DRYDEN REGIONAL
ONTARIO
Current Station Operator: NAVCAN

49°49'39.000" N
92°44'39.000" W
412.70 m
6032125
71527
YHD

Download Data

Hourly Data (August 2022)
Hourly Data Report for August 16, 2022
TIME
LST
Temp Definition
°C
Dew Point Definition
°C
Rel Hum Definition
%
Precip. Amount Definition
mm

Wind Dir Definition
10's deg

Wind Spd Definition
km/h
Visibility Definition
km
Stn Press Definition
kPa
Hmdx Definition


Wind Chill Definition


Weather Definition


00:00 19.1 17.6 91 0.0 16 15 16.1 97.06     LegendNANA
01:00 18.2 17.2 94 0.0 15 11 16.1 97.01     LegendNANA
02:00 17.9 17.1 95 0.0 16 15 16.1 97.07     LegendNANA
03:00 17.5 17.0 97 0.0 17 17 16.1 97.05     LegendNANA
04:00 17.3 16.8 97 0.0 15 17 16.1 97.03     LegendNANA
05:00 17.6 16.6 94 0.0 17 22 16.1 97.03     LegendNANA
06:00 17.7 16.6 93 0.0 15 26 16.1 97.01     LegendNANA
07:00 18.3 16.7 90 0.0 16 22 16.1 97.01     LegendNANA
08:00 18.4 16.5 88 0.0 15 24 16.1 96.98     LegendNANA
09:00 18.6 16.5 87 0.0 14 21 16.1 96.93     Rain
10:00 19.0 16.4 85 0.0 15 18 16.1 96.97     LegendNANA
11:00 20.4 16.2 77 0.0 18 22 16.1 96.96 25   LegendNANA
12:00 20.4 15.9 75 0.0 15 28 16.1 96.95 25   LegendNANA
13:00 19.8 15.8 78 0.0 15 22 16.1 96.92     LegendNANA
14:00 18.4 16.8 91 1.5 14 15 16.1 96.88     LegendNANA
15:00 18.6 16.5 87 0.2 14 24 16.1 96.86     LegendNANA
16:00 17.5 16.8 95 4.0 14 24 11.3 96.79     Moderate Rain
17:00 17.6 17.1 97 1.0 13 26 16.1 96.71     Rain
18:00 17.8 17.5 98 9.8 26 18 3.2 96.70     Heavy Rain, Fog
19:00 18.3 17.9 97 0.8 19 13 16.1 96.67     LegendNANA
20:00 17.9 17.6 98 3.5 22 26 6.4 96.63     Rain, Fog
21:00 17.9 17.6 98 0.5 24 22 4.8 96.66     Rain, Fog
22:00 17.5 17.2 98 0.8 24 22 16.1 96.68     Rain
23:00 17.3 17.1 99 0.0 25 18 14.5 96.72     Rain

Notes on Data Quality.

Legend

  • E = Estimated
  • M = Missing
  • NA = Not Available*
  • [empty] = Indicates an unobserved value
Date modified: